Lid_Strength_Index
1 0 0 0 0 -0 0 -0 -0 -1 -1 -1 -1 -1 -1 -0 -0 -0 -0 -1 -0 -0 -1 -1 -1 -1 -0 -0 -0 -0 0 1 2 1 0 -1 -1 -1 -2 -2 1 -0 1
0 0 0 0 -0 0 0 -0 -1 -0 -1 -1 -1 -0 -0 -0 -0 -0 0 -0 0 0 0 -0 -0 -0 -0 -1 -0 -1 -1 -1 1 2 1 1 0 -1 -2 -1 -1 -0 -0
0 0 0 0 0 0 -0 -0 -1 -1 -0 -1 -0 -0 -0 -0 -0 -0 0 0 0 0 0 0 0 -0 0 -0 -0 -0 -0 0 0 1 2 0 0 -0 -0 -1 -1 -2 -0
0 0 -0 -0 -0 -0 -0 -1 -1 -1 -0 -0 -0 -0 -0 -0 -0 -0 0 0 0 0 -0 -0 -0 -0 0 -0 -0 -0 -0 0 0 1 1 1 1 -0 -0 1 2 1 1
0 0 0 -0 -0 -1 -0 -0 -1 -1 -0 -0 -0 0 -0 0 0 0 0 0 1 0 -0 -0 -1 -0 -0 -0 0 0 -0 1 1 1 2 1 1 1 1 2 2 2 -1
1 1 0 0 0 0 -0 -0 -0 -0 -0 0 0 0 0 0 2 2 0 0 0 4 3 2 -0 -0 0 1 1 0 -1 0 1 1 2 2 1 1 1 2 2 2 2
1 0 0 0 0 0 0 0 1 1 1 0 0 0 1 0 3 4 3 3 4 3 1 3 1 0 0 -0 1 2 2 0 -0 -0 1 1 1 0 0 1 0 1 1
1 1 0 0 0 -0 0 0 -0 -0 0 1 0 0 0 0 4 6 4 3 2 3 2 1 1 1 0 2 1 2 2 1 0 0 -0 -0 -1 -1 -1 -0 -1 -1 -1
1 1 -0 -1 -0 -0 -0 -0 -1 -0 -0 -0 0 0 1 0 5 7 4 2 2 3 2 2 0 1 1 3 1 2 2 1 2 1 1 1 0 -0 -0 1 1 2 3
1 0 -0 -1 -1 -0 -0 -1 -1 -0 0 0 -0 -0 2 0 8 8 5 1 2 2 2 2 3 1 4 4 2 2 2 1 0 0 0 1 -0 0 1 -1 2 4 3
0 -0 -1 -1 -1 -1 -1 -1 -1 -0 0 0 0 0 0 1 0 8 8 1 1 2 2 1 1 5 6 6 4 1 2 0 0 0 1 1 1 1 2 0 -1 2 3
-0 -0 -1 -1 -0 -0 -1 -0 -0 0 1 1 1 1 1 -0 4 8 8 7 3 1 2 1 1 6 7 7 5 3 4 3 1 2 2 2 2 2 2 1 -0 -0 -0
0 0 0 -1 -0 -1 -0 1 1 1 1 1 1 1 1 0 0 7 8 7 7 4 1 2 6 9 9 8 7 5 6 2 2 2 2 2 2 1 0 -0 -1 -2 -2
1 0 0 0 1 -0 1 0 1 1 1 1 2 1 1 1 0 1 0 3 6 6 5 3 5 6 7 6 6 6 5 3 3 2 3 2 1 1 2 1 2 1 2
1 1 0 1 0 0 0 0 1 -0 1 1 1 1 2 2 1 4 3 0 0 2 4 3 4 6 7 6 6 6 6 5 4 4 4 4 2 2 2 2 3 1 3
1 1 1 1 1 1 1 1 3 5 6 7 8 5 1 4 7 10 11 11 10 10 3 3 4 5 6 6 6 6 5 5 5 4 4 3 2 3 2 3 2 2 2
1 1 1 1 1 1 1 1 2 2 7 8 11 11 12 8 10 11 11 12 13 10 3 2 3 4 5 5 5 6 6 5 4 5 5 3 2 3 3 2 4 3 2
0 4 1 1 1 1 1 1 1 2 2 1 5 5 8 10 11 13 13 11 2 7 3 2 2 2 2 3 4 4 5 5 6 5 5 3 2 3 3 2 3 2 2
1 1 1 1 1 1 1 1 1 1 1 1 1 2 3 10 10 11 13 1 2 2 1 2 1 1 2 1 1 2 3 4 5 4 5 4 4 3 4 2 2 5 4
0 2 1 1 1 1 1 1 1 1 1 1 1 1 1 1 1 1 1 1 1 1 1 1 1 1 1 1 1 1 1 3 4 4 5 4 4 4 3 3 2 3 3
0 0 1 1 1 1 1 1 1 1 1 1 1 1 7 1 2 1 1 1 1 1 1 1 1 1 1 1 1 1 1 1 2 4 4 4 4 4 4 3 2 3 3
0 1 1 1 1 1 1 1 1 1 1 1 1 1 5 1 1 2 1 1 1 1 1 1 1 1 1 1 1 1 1 2 1 3 4 4 4 3 3 2 3 4 4
0 1 1 1 1 2 1 1 1 1 1 1 1 1 1 2 2 3 3 2 1 1 0 0 0 1 0 0 0 0 1 2 1 1 3 3 4 2 2 3 4 4 4
1 1 1 1 1 1 1 1 1 3 2 1 1 2 3 2 3 3 4 4 4 3 1 0 0 1 0 0 0 0 0 0 0 0 1 3 4 5 3 4 3 4 4
0 1 1 1 1 1 1 1 1 1 2 2 2 2 2 3 4 4 5 6 6 6 4 0 0 0 0 0 0 0 3 11 3 4 1 2 2 3 3 3 3 4 3
1 1 1 1 1 1 1 2 2 3 3 3 3 3 3 5 6 6 7 7 8 8 7 2 0 0 0 0 0 4 10 14 6 10 1 1 2 3 3 3 4 4 5